Deville, LA

2:48 PM CDT on July 24, 2016 (GMT -0500)
Alexandria Esler Regional

Weather History for KESF - October, 2012

Change the Weather History Date:

Thursday, October 4, 2012

  Actual Average Record
Temperature  
Mean Temperature 72 °F -  
Max Temperature 87 °F 84 °F 91 °F (2005)
Min Temperature 57 °F 58 °F 39 °F (2010)
Cooling Degree Days 6    
Growing Degree Days 22 (Base 50)    
Moisture  
Dew Point 60 °F    
Average Humidity 87    
Maximum Humidity 100    
Minimum Humidity 41    
Precipitation  
Precipitation 0.01 in - - ()
Sea Level Pressure  
Sea Level Pressure 30.15 in    
Wind  
Wind Speed 0 mph (SE)    
Max Wind Speed 6 mph    
Max Gust Speed -    
Visibility 3 miles    
Events Fog    
Averages and records for this station are not official NWS values.
T = Trace of Precipitation, MM = Missing Value Source: NWS Daily Summary

Daily Weather History Graph

Daily Weather History Graph

Search for Another Location

Airport or City:

Trip Planner

Search our weather history database for the weather conditions in past years. The results will help you decide how hot, cold, wet, or windy it might be!

Date:

Astronomy

Oct. 04, 2012 Rise Set
Actual Time 7:05 AM CDT 6:49 PM CDT
Civil Twilight 6:40 AM CDT 7:14 PM CDT
Nautical Twilight 6:12 AM CDT 7:42 PM CDT
Astronomical Twilight 5:44 AM CDT 8:10 PM CDT
Moon 9:43 PM CDT (10/4) 11:05 AM CDT (10/4)
Length of Visible Light 12h 33m
Length of Day
11h 44m
Waning Gibbous, 82% of the Moon is Illuminated
Oct 4
Waning Gibbous
Oct 8
Last Quarter
Oct 15
New
Oct 21
First Quarter
Oct 29
Full

Hourly Weather History & Observations

Time (CDT) Temp. Heat Index Dew Point Humidity Pressure Visibility Wind Dir Wind Speed Gust Speed Precip Events Conditions
12:41 AM 60.8 °F - 59.0 °F 94% 30.10 in 3.0 mi Calm Calm - N/A   Clear
12:53 AM 62.1 °F - 60.1 °F 93% 30.10 in 2.5 mi Calm Calm - N/A   Clear
1:04 AM 60.8 °F - 59.0 °F 94% 30.11 in 0.8 mi Calm Calm - N/A   Clear
1:21 AM 60.8 °F - 59.0 °F 94% 30.11 in 1.8 mi Calm Calm - N/A   Clear
1:28 AM 60.8 °F - 59.0 °F 94% 30.11 in 0.8 mi Calm Calm - N/A   Mist
1:53 AM 59.0 °F - 57.9 °F 96% 30.11 in 0.8 mi Calm Calm - N/A   Mist
2:09 AM 60.8 °F - 57.2 °F 88% 30.12 in 1.2 mi Calm Calm - N/A   Scattered Clouds
2:18 AM 60.8 °F - 57.2 °F 88% 30.12 in 0.8 mi Calm Calm - N/A   Mist
2:53 AM 60.1 °F - 57.9 °F 93% 30.12 in 0.5 mi Calm Calm - N/A Fog Fog
3:33 AM 59.0 °F - 57.2 °F 94% 30.13 in 1.2 mi Calm Calm - N/A   Scattered Clouds
3:40 AM 57.2 °F - 57.2 °F 100% 30.13 in 3.0 mi Calm Calm - N/A   Scattered Clouds
3:53 AM 57.9 °F - 55.9 °F 93% 30.13 in 2.5 mi Calm Calm - N/A   Clear
4:03 AM 59.0 °F - 57.2 °F 94% 30.13 in 1.5 mi Calm Calm - N/A   Clear
4:25 AM 59.0 °F - 57.2 °F 94% 30.14 in 0.8 mi Calm Calm - 0.01 in   Mist
4:31 AM 57.2 °F - 57.2 °F 100% 30.14 in 0.2 mi Calm Calm - 0.01 in Fog Fog
4:40 AM 57.2 °F - 55.4 °F 94% 30.14 in 0.8 mi Calm Calm - 0.01 in   Mist
4:48 AM 57.2 °F - 57.2 °F 100% 30.15 in 1.8 mi Calm Calm - 0.01 in   Overcast
4:53 AM 57.9 °F - 55.9 °F 93% 30.14 in 1.8 mi Calm Calm - 0.01 in   Overcast
5:06 AM 57.2 °F - 55.4 °F 94% 30.15 in 0.5 mi Calm Calm - N/A Fog Fog
5:37 AM 57.2 °F - 55.4 °F 94% 30.16 in 2.0 mi Calm Calm - N/A   Overcast
5:53 AM 57.9 °F - 55.9 °F 93% 30.16 in 2.0 mi Calm Calm - N/A   Overcast
6:01 AM 57.2 °F - 55.4 °F 94% 30.16 in 1.8 mi Calm Calm - N/A   Overcast
6:10 AM 57.2 °F - 55.4 °F 94% 30.16 in 0.5 mi Calm Calm - N/A Fog Fog
6:19 AM 57.2 °F - 55.4 °F 94% 30.17 in 0.2 mi Calm Calm - N/A Fog Fog
6:34 AM 57.2 °F - 55.4 °F 94% 30.17 in 0.8 mi Calm Calm - N/A   Mist
6:42 AM 57.2 °F - 55.4 °F 94% 30.17 in 1.0 mi Calm Calm - N/A   Mist
6:47 AM 57.2 °F - 57.2 °F 100% 30.18 in 0.5 mi Calm Calm - N/A Fog Fog
6:53 AM 57.9 °F - 55.9 °F 93% 30.17 in 0.5 mi Calm Calm - N/A Fog Fog
7:08 AM 57.2 °F - 57.2 °F 100% 30.17 in 0.2 mi Calm Calm - N/A Fog Fog
7:53 AM 61.0 °F - 60.1 °F 97% 30.18 in 0.2 mi Calm Calm - N/A Fog Fog
8:53 AM 64.9 °F - 64.0 °F 97% 30.20 in 0.2 mi Calm Calm - N/A Fog Fog
9:00 AM 66.2 °F - 64.4 °F 94% 30.20 in 1.0 mi Calm Calm - N/A   Mist
9:09 AM 66.2 °F - 64.4 °F 94% 30.21 in 2.5 mi Calm Calm - N/A   Scattered Clouds
9:19 AM 68.0 °F - 66.2 °F 94% 30.21 in 4.0 mi Calm Calm - N/A   Partly Cloudy
9:53 AM 73.9 °F - 66.9 °F 79% 30.21 in 9.0 mi ESE 4.6 mph - N/A   Clear
10:53 AM 80.1 °F 82.7 °F 68.0 °F 67% 30.21 in 10.0 mi ESE 4.6 mph - N/A   Clear
11:53 AM 82.0 °F 83.1 °F 63.0 °F 52% 30.21 in 10.0 mi SE 3.5 mph - N/A   Partly Cloudy
12:53 PM 84.0 °F 84.5 °F 62.1 °F 47% 30.19 in 10.0 mi Calm Calm - N/A   Clear
1:53 PM 84.9 °F 85.4 °F 62.1 °F 46% 30.16 in 10.0 mi Variable 3.5 mph - N/A   Partly Cloudy
2:53 PM 84.9 °F 85.4 °F 62.1 °F 46% 30.15 in 10.0 mi Variable 4.6 mph - N/A   Clear
3:53 PM 86.0 °F 86.1 °F 61.0 °F 43% 30.14 in 10.0 mi Calm Calm - N/A   Partly Cloudy
4:53 PM 86.0 °F 85.7 °F 60.1 °F 41% 30.14 in 10.0 mi SSE 5.8 mph - N/A   Clear
5:53 PM 84.0 °F 84.9 °F 63.0 °F 49% 30.13 in 10.0 mi East 3.5 mph - N/A   Clear
6:53 PM 73.9 °F - 66.9 °F 79% 30.13 in 10.0 mi Calm Calm - N/A   Clear
7:53 PM 70.0 °F - 66.9 °F 90% 30.13 in 9.0 mi Calm Calm - N/A   Clear
8:53 PM 68.0 °F - 66.0 °F 93% 30.14 in 6.0 mi Calm Calm - N/A   Clear
8:59 PM 66.2 °F - 64.4 °F 94% 30.14 in 0.8 mi Calm Calm - N/A   Mist
9:12 PM 68.0 °F - 64.4 °F 88% 30.14 in 1.2 mi Calm Calm - N/A   Partly Cloudy
9:19 PM 68.0 °F - 64.4 °F 88% 30.14 in 3.0 mi Calm Calm - N/A   Partly Cloudy
9:53 PM 66.9 °F - 64.9 °F 93% 30.14 in 5.0 mi Calm Calm - N/A   Clear
10:38 PM 64.4 °F - 62.6 °F 94% 30.15 in 1.5 mi Calm Calm - N/A   Clear
10:46 PM 66.2 °F - 62.6 °F 88% 30.15 in 0.5 mi Calm Calm - N/A Fog Fog
10:53 PM 64.9 °F - 63.0 °F 93% 30.14 in 2.0 mi Calm Calm - N/A   Clear
11:12 PM 64.4 °F - 62.6 °F 94% 30.15 in 0.8 mi Calm Calm - N/A   Clear
11:35 PM 64.4 °F - 62.6 °F 94% 30.15 in 2.0 mi Calm Calm - N/A   Clear
11:43 PM 64.4 °F - 62.6 °F 94% 30.15 in 3.0 mi Calm Calm - N/A   Clear
11:47 PM 64.4 °F - 62.6 °F 94% 30.15 in 1.8 mi Calm Calm - N/A   Clear
11:53 PM 64.0 °F - 62.1 °F 93% 30.14 in 1.0 mi Calm Calm - N/A   Clear